Location: Nelson
(41.2830°S, 173.2830°E)
Time: 11:21:12
(UTC+13:00)

Meteor 1-26 Rocket - Pass Details

Date: 27 October 2019
Orbit: 817 x 918 km, 81.3° (Epoch: 17 November)

Event Time Altitude Azimuth Distance (km) Brightness Sun altitude
Rises 23:54:14 0° 210° (SSW) 3,392 8.4 -33.5°
Reaches altitude 10° 23:57:45 10° 233° (SW) 2,461 7.2 -33.7°
Maximum altitude 00:00:37 14° 264° (W) 2,164 6.5 -33.9°
Enters shadow 00:01:31 14° 275° (W) 2,197 6.5 -34.0°
